[[{"header":{"parameterUnit":"m.s-1","parameterCategory":1,"la1":30.2991,"la2":30.254,"lo1":-89.0895,"lo2":-89.0444,"dy":0.0017,"dx":0.0017,"nx":28,"ny":28,"refTime":"2023-10-15T09:00:00:Z","depth":0,"parameterNumber":2,"parameterNumberName":"U-component_of_WINDS"},"data":[0,0,0,0,0,0,0,0,0,0,0,0,0,0,0,0,0,0,0,0,0,0,0,0,0,0,0,0,0,0,0,0,0,0,0,0,0,0,0,0,0,0,0,0,0,0,0,0,0,0,0,0,0,0,0,0,0,0,3.4525,3.4525,0,3.4525,3.4525,3.4525,3.4484,3.4483,3.4482,3.4481,3.4481,3.4482,3.4483,0,0,0,0,0,0,0,0,0,0,0,0,0,3.4493,3.4494,3.4525,3.4525,3.4525,3.4525,3.4525,3.4525,3.4484,3.4483,3.4482,3.448,3.4481,3.4482,3.4483,0,0,0,0,0,0,0,0,0,0,0,0,0,3.4502,3.4494,3.4525,3.4505,3.4503,3.4525,3.4525,3.4525,3.4484,3.4483,3.4481,3.448,3.4481,3.4482,3.4484,3.4525,0,0,3.4488,3.4489,0,0,0,0,0,0,0,0,3.4501,3.4503,3.4508,3.4506,3.4504,3.4503,3.4514,3.4525,3.4485,3.4492,3.4481,3.4479,3.449,3.449,3.4494,3.4525,3.4525,3.4488,3.4489,3.449,3.449,0,0,0,0,0,0,0,3.4501,3.4503,3.4525,3.4508,3.4506,3.4497,3.4496,3.4516,3.45,3.4491,3.4488,3.4488,3.4489,3.4493,3.4494,3.4525,3.4488,3.449,3.4491,3.4491,3.4593,3.4595,0,0,0,0,0,0,3.4503,3.4502,3.4525,3.4525,3.4499,3.4499,3.4498,3.4505,3.4499,3.4497,3.449,3.4486,3.4491,3.4492,3.4494,3.4543,3.449,3.4491,3.4492,3.4592,3.4594,3.4596,0,0,0,0,0,0,3.4502,3.4505,3.4525,3.4513,3.4515,3.4501,3.4509,3.4506,3.451,3.4499,3.4496,3.4497,3.449,3.4491,3.4518,3.4543,3.4492,3.4493,3.459,3.4592,3.4595,3.4643,0,0,0,0,0,0,3.4501,3.4505,3.452,3.4514,3.4516,3.4549,3.4511,3.4507,3.4512,3.4508,3.4504,3.4502,3.4488,3.4516,3.452,3.4544,3.4495,3.4587,3.4591,3.4594,3.4639,3.4647,3.4653,0,0,0,0,0,3.45,3.4533,3.4521,3.4524,3.4534,3.4551,3.4552,3.4535,3.4515,3.453,3.4523,3.4502,3.454,3.4519,3.4523,3.4548,3.4586,3.459,3.4594,3.4636,3.4645,3.4653,0,0,0,0,0,0,3.4542,3.4532,3.4518,3.455,3.4552,3.4544,3.4562,3.4546,3.4553,3.4549,3.4528,3.4528,3.4558,3.4556,3.4533,3.4589,3.4559,3.4564,3.459,3.4599,3.4606,3.4606,3.4496,0,0,0,0,0,3.4555,3.4569,3.4559,3.4589,3.459,3.4577,3.4583,3.457,3.4571,3.4572,3.4567,3.4569,3.4582,3.459,3.4601,3.4639,3.4638,3.4658,3.4665,3.4671,3.4676,3.4698,3.4707,3.4609,3.4609,3.4609,0,0,3.4582,3.4578,3.4588,3.4597,3.4597,3.4613,3.4577,3.4595,3.4607,3.4574,3.46,3.4597,3.4598,3.4631,3.4645,3.463,3.4703,3.4677,3.4681,3.4683,3.4703,3.4712,3.4721,3.4612,3.4611,3.4611,0,0,3.4639,3.4637,3.4662,3.4663,3.4663,3.4654,3.4661,3.4656,3.4653,3.4678,3.4655,3.4669,3.469,3.4693,3.4697,3.4758,3.474,3.4762,3.48,3.4822,3.483,3.4836,3.4859,3.4868,3.4767,3.4767,3.4767,0,3.4673,3.4695,3.4677,3.4697,3.4702,3.4674,3.47,3.4702,3.4706,3.4711,3.4694,3.4721,3.472,3.4754,3.477,3.4774,3.4781,3.4762,3.483,3.4836,3.4842,3.4864,3.4873,3.477,3.4769,3.4769,3.4769,0,3.4737,3.4753,3.4773,3.4778,3.4786,3.4809,3.4795,3.4805,3.4793,3.4786,3.4813,3.4811,3.4822,3.4829,3.4816,3.4862,3.4853,3.4833,3.4802,3.4855,3.4875,3.4883,3.4774,3.4773,3.4772,3.4771,0,0,3.4819,3.4815,3.4823,3.4826,3.4826,3.4838,3.4861,3.4871,3.4881,3.4886,3.4905,3.4925,3.4907,3.4912,3.49,3.4919,3.4969,3.4897,3.4896,3.4911,3.5022,3.5037,3.5047,3.4957,3.4959,3.496,3.5022,0,3.4875,3.4912,3.4898,3.4937,3.4953,3.4928,3.4948,3.495,3.4946,3.4959,3.4954,3.4969,3.4943,3.4947,3.4964,3.4959,3.4991,3.4955,3.4976,3.4977,3.4977,3.5057,3.5073,3.5131,3.503,3.5031,3.5032,0,3.4945,3.4953,3.4994,3.4993,3.4999,3.5017,3.5027,3.5039,3.5043,3.5038,3.5045,3.5029,3.5052,3.5022,3.5055,3.5031,3.5039,3.5038,3.504,3.5041,3.5008,3.5061,3.5149,3.5158,3.5044,3.5043,3.5042,0,3.5002,3.5023,3.5051,3.5054,3.5053,3.5067,3.5067,3.5069,3.5077,3.5086,3.5091,3.5103,3.5109,3.5119,3.5108,3.5087,3.5143,3.5112,3.5141,3.5142,3.5154,3.5153,3.5245,3.5159,3.5159,3.5158,3.5158,0,3.5067,3.5093,3.5077,3.5094,3.5123,3.5107,3.5137,3.5134,3.5137,3.5154,3.5133,3.515,3.5134,3.5149,3.5141,3.5171,3.5173,3.5171,3.5169,3.5173,3.5174,3.5178,3.5174,3.5161,3.516,3.516,3.5159,0,3.5135,3.5125,3.5154,3.5151,3.5151,3.5173,3.5171,3.5188,3.5182,3.5204,3.5209,3.52,3.5218,3.5208,3.5225,3.522,3.5259,3.525,3.5257,3.5255,3.5286,3.5283,3.5384,3.5397,3.5302,3.5303,3.5304,0,3.5177,3.5197,3.5197,3.5207,3.5209,3.5225,3.5233,3.5219,3.5229,3.5236,3.5252,3.5268,3.5279,3.5309,3.5305,3.5319,3.5312,3.5346,3.5314,3.5318,3.5313,3.5313,3.5315,3.5352,3.5353,3.5354,3.5355,0,3.5253,3.5248,3.526,3.5272,3.5283,3.5292,3.5299,3.5308,3.5294,3.5307,3.5325,3.5334,3.5353,3.537,3.5383,3.5384,3.5368,3.5366,3.5373,3.5378,3.5382,3.5381,3.5276,3.5363,3.5362,3.5362,3.5361,3.5361,3.531,3.5327,3.533,3.5346,3.535,3.5357,3.5373,3.537,3.5384,3.5399,3.539,3.5411,3.5417,3.5432,3.5436,3.5453,3.544,3.5451,3.5454,3.5457,3.5461,3.5379,3.5456,3.5455,3.5455,3.5455,3.5455,0,3.5385,3.5387,3.5401,3.5412,3.5425,3.5409,3.5416,3.5428,3.5447,3.5453,3.5466,3.5488,3.5504,3.5503,3.5518,3.5533,3.5526,3.5537,3.5536,3.5537,3.5472,3.5464,3.5543,3.5543,3.5543,3.5543,3.5543,3.5543,3.5426,3.5455,3.545,3.5481,3.5483,3.5503,3.5509,3.5517,3.5522,3.5547,3.5561,3.5559,3.5563,3.5579,3.5594,3.5593,3.56,3.5615,3.5612,3.555,3.5542,3.5533,3.5526,3.5616,3.5616,3.5675,3.5676,3.5676]},{"header":{"parameterUnit":"m.s-1","parameterCategory":1,"la1":30.2991,"la2":30.254,"lo1":-89.0895,"lo2":-89.0444,"dy":0.0017,"dx":0.0017,"nx":28,"ny":28,"refTime":"2023-10-15T09:00:00:Z","depth":0,"parameterNumber":3,"parameterNumberName":"V-component_of_WINDS"},"data":[0,0,0,0,0,0,0,0,0,0,0,0,0,0,0,0,0,0,0,0,0,0,0,0,0,0,0,0,0,0,0,0,0,0,0,0,0,0,0,0,0,0,0,0,0,0,0,0,0,0,0,0,0,0,0,0,0,0,-4.7194,-4.7195,0,-4.7255,-4.7256,-4.7257,-4.7256,-4.7256,-4.7255,-4.7254,-4.7314,-4.7316,-4.7318,0,0,0,0,0,0,0,0,0,0,0,0,0,-4.7076,-4.7078,-4.7194,-4.7195,-4.7195,-4.7255,-4.7256,-4.7257,-4.7257,-4.7256,-4.7255,-4.7254,-4.7313,-4.7316,-4.7318,0,0,0,0,0,0,0,0,0,0,0,0,0,-4.7131,-4.7078,-4.7194,-4.7203,-4.7204,-4.7255,-4.7256,-4.7257,-4.7257,-4.7256,-4.7254,-4.7253,-4.7312,-4.7315,-4.7319,-4.7364,0,0,-4.7329,-4.7331,0,0,0,0,0,0,0,0,-4.7128,-4.7135,-4.7201,-4.7202,-4.7204,-4.7247,-4.7236,-4.7293,-4.7257,-4.7237,-4.7254,-4.7253,-4.7292,-4.7297,-4.7311,-4.7367,-4.737,-4.733,-4.7332,-4.7333,-4.7334,0,0,0,0,0,0,0,-4.7124,-4.7133,-4.7218,-4.7201,-4.7203,-4.7203,-4.721,-4.7247,-4.727,-4.7238,-4.7238,-4.7246,-4.7293,-4.7308,-4.7313,-4.737,-4.733,-4.7333,-4.7335,-4.7336,-4.747,-4.7471,0,0,0,0,0,0,-4.7119,-4.7129,-4.7216,-4.722,-4.7162,-4.7206,-4.7214,-4.7234,-4.727,-4.7274,-4.7247,-4.7246,-4.7303,-4.7309,-4.7315,-4.7373,-4.7333,-4.7337,-4.7339,-4.7469,-4.747,-4.7472,0,0,0,0,0,0,-4.7116,-4.7126,-4.7214,-4.7175,-4.7186,-4.721,-4.7233,-4.7236,-4.7251,-4.7276,-4.728,-4.7258,-4.7302,-4.731,-4.7353,-4.7375,-4.7338,-4.7341,-4.7467,-4.7469,-4.7471,-4.7487,0,0,0,0,0,0,-4.7113,-4.7125,-4.7143,-4.7175,-4.7188,-4.7251,-4.7234,-4.7238,-4.7258,-4.7257,-4.7288,-4.7292,-4.7302,-4.7348,-4.7356,-4.7379,-4.7344,-4.7465,-4.7468,-4.747,-4.7485,-4.749,-4.7494,0,0,0,0,0,-4.7108,-4.7143,-4.7144,-4.7154,-4.721,-4.7252,-4.726,-4.7271,-4.7259,-4.7277,-4.7294,-4.7291,-4.7371,-4.7352,-4.7362,-4.7386,-4.7464,-4.7467,-4.747,-4.7483,-4.7489,-4.7494,0,0,0,0,0,0,-4.7111,-4.7148,-4.7148,-4.7195,-4.7221,-4.7252,-4.7275,-4.7276,-4.7305,-4.7302,-4.7314,-4.7321,-4.7365,-4.7379,-4.7358,-4.7433,-4.7416,-4.7421,-4.7422,-4.7428,-4.7433,-4.7428,-4.7347,0,0,0,0,0,-4.7117,-4.7149,-4.7179,-4.7217,-4.723,-4.7251,-4.7269,-4.7276,-4.7303,-4.7313,-4.7333,-4.7358,-4.7389,-4.7409,-4.7439,-4.7487,-4.7495,-4.7509,-4.7513,-4.7517,-4.7521,-4.7551,-4.7558,-4.7483,-4.7483,-4.7483,0,0,-4.7129,-4.7154,-4.7172,-4.7218,-4.7239,-4.7272,-4.7259,-4.7293,-4.7318,-4.7318,-4.7361,-4.7376,-4.7406,-4.7452,-4.7474,-4.7466,-4.7544,-4.7521,-4.7524,-4.7526,-4.7555,-4.7562,-4.7568,-4.7485,-4.7485,-4.7484,0,0,-4.7169,-4.719,-4.7226,-4.7248,-4.7281,-4.7295,-4.7303,-4.7336,-4.7347,-4.739,-4.7392,-4.7421,-4.7473,-4.7495,-4.7513,-4.7566,-4.7565,-4.7575,-4.7598,-4.7627,-4.7633,-4.7638,-4.7659,-4.7666,-4.7579,-4.7579,-4.7579,0,-4.7181,-4.7231,-4.7244,-4.728,-4.7301,-4.7304,-4.7341,-4.7361,-4.7401,-4.7416,-4.7407,-4.7476,-4.7495,-4.7548,-4.7562,-4.7575,-4.7587,-4.7571,-4.7631,-4.7637,-4.7642,-4.7662,-4.7669,-4.7581,-4.758,-4.758,-4.758,0,-4.7244,-4.7279,-4.7304,-4.7345,-4.7369,-4.7404,-4.7424,-4.7446,-4.7452,-4.7467,-4.7513,-4.7537,-4.7573,-4.7586,-4.7591,-4.7641,-4.7636,-4.7629,-4.7612,-4.765,-4.7669,-4.7677,-4.7582,-4.7582,-4.7582,-4.7581,0,0,-4.7285,-4.7336,-4.7345,-4.7366,-4.7403,-4.7431,-4.7467,-4.7505,-4.7525,-4.7553,-4.7585,-4.7632,-4.7627,-4.7647,-4.7654,-4.7679,-4.7723,-4.767,-4.7671,-4.768,-4.7782,-4.7788,-4.7797,-4.7722,-4.7724,-4.7725,-4.7781,0,-4.733,-4.7398,-4.7412,-4.747,-4.7504,-4.7509,-4.7542,-4.7569,-4.7585,-4.7615,-4.7632,-4.7666,-4.7656,-4.7669,-4.7694,-4.7712,-4.7744,-4.7708,-4.7753,-4.7754,-4.7747,-4.7807,-4.7812,-4.7863,-4.7788,-4.7789,-4.779,0,-4.7392,-4.7425,-4.7486,-4.7523,-4.7538,-4.7567,-4.7604,-4.7633,-4.7665,-4.7675,-4.77,-4.7705,-4.7745,-4.7726,-4.7782,-4.7758,-4.7777,-4.7789,-4.7791,-4.7796,-4.7775,-4.7815,-4.788,-4.7888,-4.7801,-4.7801,-4.78,0,-4.7418,-4.7477,-4.7523,-4.754,-4.7583,-4.7604,-4.7623,-4.7654,-4.7676,-4.7709,-4.7724,-4.776,-4.7779,-4.7807,-4.7823,-4.7807,-4.7878,-4.786,-4.7888,-4.7888,-4.7903,-4.7902,-4.7973,-4.7913,-4.7913,-4.7913,-4.7913,0,-4.7468,-4.7506,-4.7536,-4.7564,-4.7608,-4.7625,-4.7667,-4.7686,-4.7714,-4.7746,-4.7752,-4.7782,-4.7801,-4.7833,-4.7846,-4.7891,-4.79,-4.7909,-4.7912,-4.791,-4.7909,-4.7923,-4.792,-4.7915,-4.7915,-4.7914,-4.7914,0,-4.7505,-4.7526,-4.7577,-4.7615,-4.7626,-4.7656,-4.7689,-4.7717,-4.7734,-4.7775,-4.7786,-4.7812,-4.7851,-4.787,-4.7918,-4.7926,-4.7979,-4.7978,-4.7969,-4.797,-4.7998,-4.7996,-4.8082,-4.8095,-4.8025,-4.8026,-4.8026,0,-4.7535,-4.7565,-4.7608,-4.7631,-4.7652,-4.7688,-4.7712,-4.773,-4.7755,-4.7796,-4.7819,-4.7859,-4.7893,-4.7955,-4.7979,-4.8016,-4.8018,-4.8046,-4.8023,-4.8021,-4.802,-4.8019,-4.8023,-4.805,-4.805,-4.8051,-4.8051,0,-4.7588,-4.7599,-4.7634,-4.7674,-4.7704,-4.7736,-4.7767,-4.7785,-4.7809,-4.7837,-4.7878,-4.7904,-4.7955,-4.7996,-4.8036,-4.8055,-4.8058,-4.8058,-4.8067,-4.8065,-4.8059,-4.8065,-4.7981,-4.8056,-4.8056,-4.8055,-4.8055,-4.8055,-4.7624,-4.7653,-4.7688,-4.7728,-4.7755,-4.7785,-4.7814,-4.7836,-4.7872,-4.7916,-4.7924,-4.7969,-4.8002,-4.8057,-4.8078,-4.8113,-4.8107,-4.8119,-4.8122,-4.8125,-4.8128,-4.8053,-4.812,-4.812,-4.812,-4.812,-4.812,0,-4.7679,-4.7704,-4.774,-4.7786,-4.7818,-4.782,-4.7855,-4.7882,-4.7922,-4.7953,-4.7987,-4.8036,-4.8076,-4.8104,-4.8145,-4.8168,-4.8171,-4.8178,-4.8177,-4.8182,-4.813,-4.812,-4.8176,-4.8176,-4.8176,-4.8176,-4.8176,-4.8176,-4.7712,-4.7761,-4.7776,-4.7839,-4.7862,-4.7908,-4.7928,-4.7957,-4.7982,-4.8038,-4.8072,-4.809,-4.8121,-4.8165,-4.8202,-4.8209,-4.8225,-4.8233,-4.824,-4.8191,-4.8185,-4.818,-4.817,-4.8236,-4.8236,-4.8289,-4.829,-4.829]}]]